,,Stat5,,Stat1,,Stat2,,Stat3,,Stat4,,Wind1,,Wind1,
time,status,PA1M_AVG,status,PR1M_SUM,status,RH1M_AVG,status,SR1M_AVG,status,TA1M_AVG,status,W1dAve1m,status,W1sAve1m,
2001-08-07, 00:00:00,VALID,918.199,VALID,0,VALID,94.2742,VALID,-0.0679233,VALID,19.8155,VALID,180,VALID,1.28566,
2001-08-07, 00:01:00,VALID,918.152,VALID,0,VALID,94.1,VALID,-0.0509425,VALID,19.8389,VALID,173,VALID,0.878447,
2001-08-07, 00:02:00,VALID,918.114,VALID,0,VALID,94.0924,VALID,-0.0679233,VALID,19.8545,VALID,177,VALID,0.823602,
2001-08-07, 00:03:00,VALID,918.079,VALID,0,VALID,94.0199,VALID,-0.0849042,VALID,19.8416,VALID,163,VALID,0.560547,
2001-08-07, 00:04:00,VALID,918.053,VALID,0,VALID,94.058,VALID,-0.101885,VALID,19.8351,VALID,144,VALID,0.6875,
2001-08-07, 00:05:00,VALID,918.026,VALID,0,VALID,94.0428,VALID,-0.101885,VALID,19.8187,VALID,189,VALID,0.706292,
2001-08-07, 00:06:00,VALID,918.022,VALID,0,VALID,93.8559,VALID,-0.0849042,VALID,19.8153,VALID,199,VALID,0.424023,
2001-08-07, 00:07:00,VALID,918.003,VALID,0,VALID,93.7109,VALID,-0.0849042,VALID,19.8354,VALID,118,VALID,0.204153,
2001-08-07, 00:08:00,VALID,918.012,VALID,0,VALID,93.5507,VALID,0,VALID,19.8371,VALID,163,VALID,0.354102,
2001-08-07, 00:09:00,VALID,918.012,VALID,0,VALID,93.5087,VALID,0.0339617,VALID,19.8207,VALID,202,VALID,0.294922,
2001-08-07, 00:10:00,VALID,918.031,VALID,0,VALID,93.6041,VALID,0.0169808,VALID,19.8043,VALID,205,VALID,0.334736,
2001-08-07, 00:11:00,VALID,918.016,VALID,0,VALID,93.6906,VALID,0,VALID,19.818,VALID,201,VALID,0.312294,
2001-08-07, 00:12:00,VALID,918.019,VALID,0,VALID,93.641,VALID,0.0169808,VALID,19.8113,VALID,201,VALID,0.151953,
2001-08-07, 00:13:00,VALID,918.004,VALID,0,VALID,93.5291,VALID,0,VALID,19.7852,VALID,201,VALID,0.0179687,
2001-08-07, 00:14:00,VALID,917.992,VALID,0,VALID,93.5227,VALID,0.0169808,VALID,19.7728,VALID,201,VALID,0.000801282,
2001-08-07, 00:15:00,VALID,917.987,VALID,0,VALID,93.524,VALID,0.0509425,VALID,19.7464,VALID,166,VALID,0.182155,
2001-08-07, 00:16:00,VALID,917.98,VALID,0,VALID,93.454,VALID,0.0169808,VALID,19.7208,VALID,157,VALID,0.478906,
2001-08-07, 00:17:00,VALID,917.962,VALID,0,VALID,93.4591,VALID,0,VALID,19.7176,VALID,21,VALID,0.30332,
2001-08-07, 00:18:00,VALID,917.944,VALID,0,VALID,93.318,VALID,0,VALID,19.7117,VALID,153,VALID,0.424479,
2001-08-07, 00:19:00,VALID,917.937,VALID,0,VALID,93.0751,VALID,0,VALID,19.7139,VALID,218,VALID,0.490748,
2001-08-07, 00:20:00,VALID,917.91,VALID,0,VALID,92.7534,VALID,0.0169808,VALID,19.7467,VALID,204,VALID,0.129102,
2001-08-07, 00:21:00,VALID,917.893,VALID,0,VALID,92.5003,VALID,0.0169808,VALID,19.737,VALID,111,VALID,0.203125,
2001-08-07, 00:22:00,VALID,917.869,VALID,0,VALID,92.48,VALID,0,VALID,19.7052,VALID,28,VALID,0.421675,
2001-08-07, 00:23:00,VALID,917.857,VALID,0,VALID,92.4469,VALID,-0.0169808,VALID,19.6567,VALID,17,VALID,0.152549,
2001-08-07, 00:24:00,VALID,917.849,VALID,0,VALID,92.5054,VALID,0.0169808,VALID,19.6212,VALID,17,VALID,0.120703,
2001-08-07, 00:25:00,VALID,917.848,VALID,0,VALID,92.7038,VALID,0.0169808,VALID,19.5951,VALID,347,VALID,0.14668,
2001-08-07, 00:26:00,VALID,917.843,VALID,0,VALID,93.0026,VALID,0,VALID,19.5986,VALID,202,VALID,0.313702,
2001-08-07, 00:27:00,VALID,917.858,VALID,0,VALID,92.9327,VALID,0,VALID,19.6053,VALID,183,VALID,0.0995066,
2001-08-07, 00:28:00,VALID,917.851,VALID,0,VALID,92.7407,VALID,-0.0169808,VALID,19.579,VALID,137,VALID,0.208789,
2001-08-07, 00:29:00,VALID,917.865,VALID,0,VALID,92.6771,VALID,-0.101885,VALID,19.532,VALID,116,VALID,0.0572266,
2001-08-07, 00:30:00,VALID,917.885,VALID,0,VALID,92.7229,VALID,-0.118866,VALID,19.4935,VALID,105,VALID,0.0372596,
2001-08-07, 00:31:00,VALID,917.879,VALID,0,VALID,92.3783,VALID,-0.101885,VALID,19.3904,VALID,37,VALID,0.151933,
2001-08-07, 00:32:00,VALID,917.885,VALID,0,VALID,92.4952,VALID,-0.0849042,VALID,19.2674,VALID,35,VALID,0.470898,
2001-08-07, 00:33:00,VALID,917.889,VALID,0,VALID,93.0433,VALID,-0.101885,VALID,19.1414,VALID,35,VALID,0.105664,
2001-08-07, 00:34:00,VALID,917.882,VALID,0,VALID,93.9372,VALID,-0.0849042,VALID,19.0736,VALID,29,VALID,0.168069,
2001-08-07, 00:35:00,VALID,917.863,VALID,0,VALID,94.6722,VALID,-0.101885,VALID,19.1093,VALID,285,VALID,0.120888,
2001-08-07, 00:36:00,VALID,917.851,VALID,0,VALID,94.7206,VALID,-0.101885,VALID,19.1195,VALID,178,VALID,0.181445,
2001-08-07, 00:37:00,VALID,917.831,VALID,0,VALID,94.7752,VALID,-0.118866,VALID,19.0969,VALID,147,VALID,0.629297,
2001-08-07, 00:38:00,VALID,917.808,VALID,0,VALID,95.247,VALID,-0.101885,VALID,19.09,VALID,142,VALID,0.683293,
2001-08-07, 00:39:00,VALID,917.792,VALID,0,VALID,95.5267,VALID,-0.118866,VALID,19.1031,VALID,85,VALID,0.73273,
2001-08-07, 00:40:00,VALID,917.766,VALID,0,VALID,95.8065,VALID,-0.101885,VALID,19.1255,VALID,67,VALID,0.714063,
2001-08-07, 00:41:00,VALID,917.759,VALID,0,VALID,95.6743,VALID,-0.118866,VALID,19.1548,VALID,108,VALID,0.34043,
2001-08-07, 00:42:00,VALID,917.763,VALID,0,VALID,95.5903,VALID,-0.101885,VALID,19.161,VALID,126,VALID,0.595753,
2001-08-07, 00:43:00,VALID,917.756,VALID,0,VALID,95.5751,VALID,-0.101885,VALID,19.1966,VALID,128,VALID,0.483141,
2001-08-07, 00:44:00,VALID,917.752,VALID,0,VALID,94.9075,VALID,0.0169808,VALID,19.2669,VALID,269,VALID,0.697461,
2001-08-07, 00:45:00,VALID,917.713,VALID,0,VALID,94.5196,VALID,0,VALID,19.3375,VALID,97,VALID,0.790625,
2001-08-07, 00:46:00,VALID,917.714,VALID,0,VALID,94.479,VALID,0.0169808,VALID,19.4185,VALID,64,VALID,1.09475,
2001-08-07, 00:47:00,VALID,917.702,VALID,0,VALID,94.1699,VALID,0,VALID,19.4473,VALID,94,VALID,0.828125,
2001-08-07, 00:48:00,VALID,917.703,VALID,0,VALID,94.025,VALID,0.0169808,VALID,19.4244,VALID,75,VALID,0.878125,
2001-08-07, 00:49:00,VALID,917.688,VALID,0,VALID,93.7834,VALID,0,VALID,19.4048,VALID,75,VALID,0.917578,
2001-08-07, 00:50:00,VALID,917.643,VALID,0,VALID,93.8457,VALID,0.0169808,VALID,19.3822,VALID,79,VALID,0.911058,
2001-08-07, 00:51:00,VALID,917.619,VALID,0,VALID,94.0288,VALID,0.0339617,VALID,19.3566,VALID,68,VALID,1.26501,
2001-08-07, 00:52:00,VALID,917.604,VALID,0,VALID,93.8088,VALID,0.0169808,VALID,19.3434,VALID,47,VALID,1.56094,
2001-08-07, 00:53:00,VALID,917.586,VALID,0,VALID,93.9398,VALID,0,VALID,19.3144,VALID,55,VALID,1.25508,
2001-08-07, 00:54:00,VALID,917.575,VALID,0,VALID,93.9678,VALID,0,VALID,19.3375,VALID,60,VALID,1.26823,
2001-08-07, 00:55:00,VALID,917.57,VALID,0,VALID,93.7465,VALID,0,VALID,19.373,VALID,75,VALID,0.763363,
2001-08-07, 00:56:00,VALID,917.564,VALID,0,VALID,93.4884,VALID,0.0169808,VALID,19.4117,VALID,79,VALID,0.978906,
2001-08-07, 00:57:00,VALID,917.557,VALID,0,VALID,93.0929,VALID,0,VALID,19.4597,VALID,71,VALID,0.712305,
2001-08-07, 00:58:00,VALID,917.557,VALID,0,VALID,92.7356,VALID,0,VALID,19.4893,VALID,71,VALID,0.719752,
2001-08-07, 00:59:00,VALID,917.546,VALID,0,VALID,92.4952,VALID,0.0169808,VALID,19.4567,VALID,72,VALID,0.656661,
2001-08-07, 01:00:00,VALID,917.54,VALID,0,VALID,92.7305,VALID,0.0169808,VALID,19.3983,VALID,88,VALID,0.692383,
2001-08-07, 01:01:00,VALID,917.532,VALID,0,VALID,93.2811,VALID,0.0339617,VALID,19.3469,VALID,121,VALID,0.972852,
2001-08-07, 01:02:00,VALID,917.537,VALID,0,VALID,93.9436,VALID,0,VALID,19.3178,VALID,121,VALID,0.713742,
2001-08-07, 01:03:00,VALID,917.551,VALID,0,VALID,94.2539,VALID,0.0169808,VALID,19.3144,VALID,118,VALID,0.906456,
2001-08-07, 01:04:00,VALID,917.561,VALID,0,VALID,94.3187,VALID,-0.0169808,VALID,19.3149,VALID,110,VALID,0.748438,
2001-08-07, 01:05:00,VALID,917.558,VALID,0,VALID,94.4548,VALID,0.0169808,VALID,19.3213,VALID,116,VALID,0.667188,
2001-08-07, 01:06:00,VALID,917.569,VALID,0,VALID,94.4154,VALID,0,VALID,19.3012,VALID,119,VALID,0.519832,
2001-08-07, 01:07:00,VALID,917.577,VALID,0,VALID,94.4815,VALID,0,VALID,19.3086,VALID,144,VALID,0.607936,
2001-08-07, 01:08:00,VALID,917.565,VALID,0,VALID,94.568,VALID,-0.0509425,VALID,19.3091,VALID,138,VALID,0.422461,
2001-08-07, 01:09:00,VALID,917.539,VALID,0,VALID,94.3798,VALID,0,VALID,19.3245,VALID,139,VALID,0.45332,
2001-08-07, 01:10:00,VALID,917.524,VALID,0,VALID,94.5692,VALID,-0.0339617,VALID,19.325,VALID,164,VALID,0.646635,
2001-08-07, 01:11:00,VALID,917.499,VALID,0,VALID,94.9901,VALID,-0.0169808,VALID,19.3347,VALID,159,VALID,0.497944,
2001-08-07, 01:12:00,VALID,917.49,VALID,0,VALID,95.1656,VALID,-0.0169808,VALID,19.3444,VALID,149,VALID,0.430664,
2001-08-07, 01:13:00,VALID,917.467,VALID,0,VALID,95.364,VALID,0.0169808,VALID,19.3372,VALID,144,VALID,0.31582,
2001-08-07, 01:14:00,VALID,917.443,VALID,0,VALID,95.4187,VALID,0,VALID,19.3578,VALID,137,VALID,0.133213,
2001-08-07, 01:15:00,VALID,917.401,VALID,0,VALID,95.1109,VALID,-0.0509425,VALID,19.3347,VALID,136,VALID,0.104235,
2001-08-07, 01:16:00,VALID,917.362,VALID,0,VALID,94.8274,VALID,-0.0169808,VALID,19.3188,VALID,136,VALID,0.0287109,
2001-08-07, 01:17:00,VALID,917.323,VALID,0,VALID,94.3594,VALID,-0.0339617,VALID,19.2704,VALID,109,VALID,0.121289,
2001-08-07, 01:18:00,VALID,917.285,VALID,0,VALID,94.4001,VALID,-0.0339617,VALID,19.206,VALID,47,VALID,0.452123,
2001-08-07, 01:19:00,VALID,917.258,VALID,0,VALID,94.4917,VALID,-0.0339617,VALID,19.1603,VALID,47,VALID,0.105674,
2001-08-07, 01:20:00,VALID,917.239,VALID,0,VALID,94.5107,VALID,-0.0679233,VALID,19.1349,VALID,47,VALID,0,
2001-08-07, 01:21:00,VALID,917.224,VALID,0,VALID,94.5921,VALID,-0.0679233,VALID,19.1126,VALID,47,VALID,0,
2001-08-07, 01:22:00,VALID,917.211,VALID,0,VALID,94.5069,VALID,-0.0509425,VALID,19.0604,VALID,45,VALID,0.0859375,
2001-08-07, 01:23:00,VALID,917.199,VALID,0,VALID,94.6443,VALID,-0.0339617,VALID,19.0376,VALID,17,VALID,0.0559211,
2001-08-07, 01:24:00,VALID,917.183,VALID,0,VALID,94.526,VALID,-0.0169808,VALID,19.0706,VALID,267,VALID,0.220313,
2001-08-07, 01:25:00,VALID,917.158,VALID,0,VALID,94.0301,VALID,-0.0509425,VALID,19.1257,VALID,220,VALID,0.00371094,
2001-08-07, 01:26:00,VALID,917.133,VALID,0,VALID,93.6804,VALID,-0.0169808,VALID,19.1414,VALID,220,VALID,0,
2001-08-07, 01:27:00,VALID,917.109,VALID,0,VALID,93.5837,VALID,-0.0169808,VALID,19.1446,VALID,220,VALID,0,
2001-08-07, 01:28:01,VALID,917.091,VALID,0,VALID,93.5736,VALID,-0.0509425,VALID,19.1442,VALID,220,VALID,0,
2001-08-07, 01:29:00,VALID,917.065,VALID,0,VALID,93.3523,VALID,0,VALID,19.1675,VALID,220,VALID,0.0316406,
2001-08-07, 01:30:00,VALID,917.041,VALID,0,VALID,92.9594,VALID,-0.0169808,VALID,19.1869,VALID,217,VALID,0.0410657,
2001-08-07, 01:31:00,VALID,917.025,VALID,0,VALID,92.5817,VALID,-0.0169808,VALID,19.2122,VALID,180,VALID,0.546464,
2001-08-07, 01:32:00,VALID,917.007,VALID,0,VALID,92.2498,VALID,0,VALID,19.2415,VALID,174,VALID,0.505273,
2001-08-07, 01:33:00,VALID,916.98,VALID,0,VALID,91.7043,VALID,-0.0339617,VALID,19.2962,VALID,183,VALID,0.541406,
2001-08-07, 01:34:00,VALID,916.96,VALID,0,VALID,91.6636,VALID,-0.0509425,VALID,19.3255,VALID,177,VALID,0.497596,
2001-08-07, 01:35:00,VALID,916.94,VALID,0,VALID,91.6369,VALID,-0.0169808,VALID,19.3287,VALID,176,VALID,0.383429,
2001-08-07, 01:36:00,VALID,916.928,VALID,0,VALID,91.6979,VALID,-0.0679233,VALID,19.3061,VALID,159,VALID,0.105273,
2001-08-07, 01:37:00,VALID,916.885,VALID,0,VALID,91.6,VALID,-0.0849042,VALID,19.2187,VALID,43,VALID,0.45332,
2001-08-07, 01:38:00,VALID,916.858,VALID,0,VALID,92.3605,VALID,-0.0509425,VALID,19.0992,VALID,40,VALID,0.450921,
2001-08-07, 01:39:00,VALID,916.825,VALID,0,VALID,92.9683,VALID,0,VALID,19.0284,VALID,41,VALID,0.537418,
2001-08-07, 01:40:01,VALID,916.787,VALID,0,VALID,93.1539,VALID,-0.0169808,VALID,18.9573,VALID,41,VALID,0.602734,
2001-08-07, 01:41:00,VALID,916.759,VALID,0,VALID,93.2976,VALID,-0.0339617,VALID,18.8537,VALID,41,VALID,0.434766,
2001-08-07, 01:42:00,VALID,916.743,VALID,0,VALID,93.6702,VALID,-0.0169808,VALID,18.7668,VALID,35,VALID,0.58153,
2001-08-07, 01:43:00,VALID,916.722,VALID,0,VALID,94.1216,VALID,-0.0679233,VALID,18.6927,VALID,35,VALID,0.562294,
2001-08-07, 01:44:01,VALID,916.697,VALID,0,VALID,94.3747,VALID,-0.0339617,VALID,18.6154,VALID,33,VALID,0.451172,
2001-08-07, 01:45:00,VALID,916.703,VALID,0,VALID,94.7104,VALID,-0.0169808,VALID,18.531,VALID,26,VALID,0.535352,
2001-08-07, 01:46:01,VALID,916.693,VALID,0,VALID,95.0461,VALID,-0.0169808,VALID,18.4664,VALID,19,VALID,0.704127,
2001-08-07, 01:47:00,VALID,916.688,VALID,0,VALID,95.4543,VALID,-0.0339617,VALID,18.4341,VALID,14,VALID,0.807771,
2001-08-07, 01:48:00,VALID,916.701,VALID,0,VALID,95.8421,VALID,-0.0339617,VALID,18.421,VALID,13,VALID,0.757031,
2001-08-07, 01:49:00,VALID,916.69,VALID,0,VALID,95.9896,VALID,-0.0339617,VALID,18.4597,VALID,11,VALID,0.606641,
2001-08-07, 01:50:00,VALID,916.692,VALID,0,VALID,95.996,VALID,-0.0679233,VALID,18.525,VALID,10,VALID,0.722957,
2001-08-07, 01:51:00,VALID,916.677,VALID,0,VALID,95.7518,VALID,-0.0509425,VALID,18.5576,VALID,11,VALID,0.662007,
2001-08-07, 01:52:01,VALID,916.663,VALID,0,VALID,95.5852,VALID,-0.0169808,VALID,18.5737,VALID,12,VALID,0.401563,
2001-08-07, 01:53:00,VALID,916.648,VALID,0,VALID,95.6806,VALID,-0.0339617,VALID,18.6154,VALID,302,VALID,0.621484,
2001-08-07, 01:54:01,VALID,916.648,VALID,0,VALID,95.7289,VALID,-0.0679233,VALID,18.7031,VALID,301,VALID,0.858173,
2001-08-07, 01:55:01,VALID,916.641,VALID,0,VALID,95.7315,VALID,-0.0339617,VALID,18.8191,VALID,333,VALID,0.5294,
2001-08-07, 01:56:01,VALID,916.646,VALID,0,VALID,95.233,VALID,-0.0849042,VALID,18.8378,VALID,299,VALID,0.373828,
2001-08-07, 01:57:00,VALID,916.654,VALID,0,VALID,95.3144,VALID,-0.0679233,VALID,18.8932,VALID,270,VALID,0.469727,
2001-08-07, 01:58:01,VALID,916.651,VALID,0,VALID,95.2432,VALID,-0.0509425,VALID,18.9126,VALID,270,VALID,0.0600962,
2001-08-07, 01:59:00,VALID,916.649,VALID,0,VALID,95.308,VALID,-0.0339617,VALID,18.9449,VALID,270,VALID,0.23088,
2001-08-07, 02:00:00,VALID,916.641,VALID,0,VALID,95.4517,VALID,-0.0509425,VALID,18.964,VALID,269,VALID,0.120117,
2001-08-07, 02:01:00,VALID,916.639,VALID,0,VALID,95.5217,VALID,-0.0509425,VALID,18.9799,VALID,269,VALID,0.234375,
2001-08-07, 02:02:01,VALID,916.608,VALID,0,VALID,95.5649,VALID,-0.0339617,VALID,18.9829,VALID,277,VALID,0.120393,
2001-08-07, 02:03:00,VALID,916.596,VALID,0,VALID,95.5471,VALID,-0.0339617,VALID,19.0058,VALID,284,VALID,0.218956,
2001-08-07, 02:04:01,VALID,916.59,VALID,0,VALID,95.3869,VALID,-0.0509425,VALID,18.9931,VALID,311,VALID,0.34082,
2001-08-07, 02:05:00,VALID,916.568,VALID,0,VALID,95.2127,VALID,-0.0679233,VALID,18.9767,VALID,345,VALID,0.251953,
2001-08-07, 02:06:01,VALID,916.57,VALID,0,VALID,94.8134,VALID,-0.0169808,VALID,18.9352,VALID,346,VALID,0.448718,
2001-08-07, 02:07:00,VALID,916.57,VALID,0,VALID,95.1389,VALID,-0.101885,VALID,18.9456,VALID,356,VALID,0.405428,
2001-08-07, 02:08:01,VALID,916.569,VALID,0,VALID,95.3004,VALID,-0.0169808,VALID,18.9511,VALID,1,VALID,0.52207,
2001-08-07, 02:09:00,VALID,916.566,VALID,0,VALID,95.2673,VALID,-0.0509425,VALID,18.9707,VALID,15,VALID,0.318359,
2001-08-07, 02:10:01,VALID,916.56,VALID,0,VALID,95.1593,VALID,-0.0509425,VALID,18.9638,VALID,24,VALID,0.389824,
2001-08-07, 02:11:00,VALID,916.559,VALID,0,VALID,95.1389,VALID,-0.0679233,VALID,18.9804,VALID,346,VALID,0.0748355,
2001-08-07, 02:12:00,VALID,916.554,VALID,0,VALID,95.13,VALID,-0.0679233,VALID,18.9804,VALID,346,VALID,0.170312,
2001-08-07, 02:13:00,VALID,916.545,VALID,0,VALID,95.1389,VALID,-0.101885,VALID,18.9735,VALID,10,VALID,0.594727,
2001-08-07, 02:14:01,VALID,916.514,VALID,0,VALID,94.9329,VALID,0.0509425,VALID,18.9924,VALID,16,VALID,0.652244,
2001-08-07, 02:15:00,VALID,916.498,VALID,0,VALID,94.7155,VALID,0.0339617,VALID,18.9953,VALID,25,VALID,0.105674,
2001-08-07, 02:16:01,VALID,916.494,VALID,0,VALID,94.5692,VALID,0.0509425,VALID,19.0013,VALID,25,VALID,0,
2001-08-07, 02:17:00,VALID,916.465,VALID,0,VALID,94.4205,VALID,0.0679233,VALID,19.0011,VALID,36,VALID,0.0351563,
2001-08-07, 02:18:01,VALID,916.476,VALID,0,VALID,94.2373,VALID,0.0679233,VALID,19.0048,VALID,102,VALID,0.468349,
2001-08-07, 02:19:00,VALID,916.467,VALID,0,VALID,94.3047,VALID,0.0339617,VALID,18.9914,VALID,125,VALID,0.484581,
2001-08-07, 02:20:01,VALID,916.487,VALID,0,VALID,94.3925,VALID,0.0509425,VALID,18.9852,VALID,145,VALID,0.600195,
2001-08-07, 02:21:00,VALID,916.471,VALID,0,VALID,94.4777,VALID,0.0509425,VALID,18.9658,VALID,143,VALID,0.548242,
2001-08-07, 02:22:01,VALID,916.479,VALID,0,VALID,94.5616,VALID,0.0849042,VALID,18.9556,VALID,113,VALID,0.393229,
2001-08-07, 02:23:01,VALID,916.479,VALID,0,VALID,94.5069,VALID,0.0849042,VALID,18.9561,VALID,47,VALID,0.55222,
2001-08-07, 02:24:00,VALID,916.462,VALID,0,VALID,94.5133,VALID,0.0339617,VALID,18.94,VALID,37,VALID,0.341797,
2001-08-07, 02:25:00,VALID,916.456,VALID,0,VALID,94.4561,VALID,0.0679233,VALID,18.9271,VALID,35,VALID,0.17832,
2001-08-07, 02:26:00,VALID,916.452,VALID,0,VALID,94.4395,VALID,0.0849042,VALID,18.8915,VALID,35,VALID,0,
2001-08-07, 02:27:00,VALID,916.454,VALID,0,VALID,94.5311,VALID,0.0339617,VALID,18.8821,VALID,32,VALID,0.122738,
2001-08-07, 02:28:01,VALID,916.453,VALID,0,VALID,94.6481,VALID,0.0509425,VALID,18.8818,VALID,27,VALID,0.190039,
2001-08-07, 02:29:00,VALID,916.458,VALID,0,VALID,94.6443,VALID,-0.0509425,VALID,18.9056,VALID,18,VALID,0.183789,
2001-08-07, 02:30:01,VALID,916.477,VALID,0,VALID,94.4154,VALID,-0.0679233,VALID,18.922,VALID,13,VALID,0.230569,
2001-08-07, 02:31:00,VALID,916.476,VALID,0,VALID,94.3416,VALID,0,VALID,18.9121,VALID,12,VALID,0.0205592,
2001-08-07, 02:32:01,VALID,916.474,VALID,0,VALID,94.3988,VALID,-0.0339617,VALID,18.9156,VALID,12,VALID,0.000976563,
2001-08-07, 02:33:00,VALID,916.493,VALID,0,VALID,94.4103,VALID,0,VALID,18.928,VALID,12,VALID,0,
2001-08-07, 02:34:01,VALID,916.505,VALID,0,VALID,94.3721,VALID,-0.0509425,VALID,18.9412,VALID,12,VALID,0,
2001-08-07, 02:35:00,VALID,916.533,VALID,0,VALID,94.2818,VALID,-0.0169808,VALID,18.9608,VALID,12,VALID,0,
2001-08-07, 02:36:00,VALID,916.548,VALID,0,VALID,94.1878,VALID,-0.0679233,VALID,18.9869,VALID,350,VALID,0.0664063,
2001-08-07, 02:37:00,VALID,916.571,VALID,0,VALID,93.8953,VALID,-0.0339617,VALID,19.0062,VALID,233,VALID,0.331641,
2001-08-07, 02:38:01,VALID,916.589,VALID,0,VALID,93.468,VALID,-0.0169808,VALID,19.0544,VALID,314,VALID,0.292067,
2001-08-07, 02:39:00,VALID,916.611,VALID,0,VALID,93.1552,VALID,-0.101885,VALID,19.048,VALID,16,VALID,0.0793586,
2001-08-07, 02:40:01,VALID,916.612,VALID,0,VALID,93.3905,VALID,-0.0169808,VALID,19.0348,VALID,16,VALID,0,
2001-08-07, 02:41:00,VALID,916.61,VALID,0,VALID,93.4477,VALID,-0.0339617,VALID,19.0286,VALID,16,VALID,0,
2001-08-07, 02:42:01,VALID,916.617,VALID,0,VALID,93.5481,VALID,-0.0339617,VALID,19.0187,VALID,352,VALID,0.146635,
2001-08-07, 02:43:00,VALID,916.605,VALID,0,VALID,93.641,VALID,-0.0679233,VALID,19.0154,VALID,313,VALID,0.0606497,
2001-08-07, 02:44:01,VALID,916.588,VALID,0,VALID,93.6906,VALID,-0.0509425,VALID,19.0286,VALID,313,VALID,0,
2001-08-07, 02:45:00,VALID,916.588,VALID,0,VALID,93.5163,VALID,-0.0679233,VALID,19.0288,VALID,313,VALID,0.0251953,
2001-08-07, 02:46:01,VALID,916.585,VALID,0,VALID,93.5418,VALID,-0.0169808,VALID,18.9864,VALID,312,VALID,0.139223,
2001-08-07, 02:47:00,VALID,916.586,VALID,0,VALID,93.7147,VALID,-0.0849042,VALID,18.9906,VALID,312,VALID,0,
2001-08-07, 02:48:00,VALID,916.576,VALID,0,VALID,93.7847,VALID,-0.0509425,VALID,18.9799,VALID,312,VALID,0,
2001-08-07, 02:49:00,VALID,916.571,VALID,0,VALID,93.4426,VALID,-0.0339617,VALID,18.9506,VALID,313,VALID,0.00078125,
2001-08-07, 02:50:01,VALID,916.562,VALID,0,VALID,93.3332,VALID,-0.0679233,VALID,18.8701,VALID,332,VALID,0.00240385,
2001-08-07, 02:51:00,VALID,916.557,VALID,0,VALID,93.543,VALID,-0.0169808,VALID,18.7861,VALID,17,VALID,0.472245,
2001-08-07, 02:52:01,VALID,916.571,VALID,0,VALID,93.8813,VALID,0,VALID,18.6828,VALID,17,VALID,0.35332,
2001-08-07, 02:53:00,VALID,916.576,VALID,0,VALID,94.3454,VALID,-0.0339617,VALID,18.6085,VALID,17,VALID,0.285742,
2001-08-07, 02:54:01,VALID,916.576,VALID,0,VALID,94.9723,VALID,-0.0509425,VALID,18.5829,VALID,27,VALID,0.436899,
2001-08-07, 02:55:00,VALID,916.589,VALID,0,VALID,95.3169,VALID,-0.0169808,VALID,18.5926,VALID,53,VALID,0.631373,
2001-08-07, 02:56:01,VALID,916.593,VALID,0,VALID,95.3207,VALID,-0.0339617,VALID,18.6053,VALID,58,VALID,0.211133,
2001-08-07, 02:57:00,VALID,916.604,VALID,0,VALID,95.1618,VALID,-0.0339617,VALID,18.6184,VALID,58,VALID,0,
2001-08-07, 02:58:01,VALID,916.606,VALID,0,VALID,95.1071,VALID,-0.0679233,VALID,18.6184,VALID,58,VALID,0,
2001-08-07, 02:59:01,VALID,916.607,VALID,0,VALID,95.0524,VALID,0,VALID,18.6214,VALID,58,VALID,0,
2001-08-07, 03:00:00,VALID,916.595,VALID,0,VALID,94.9927,VALID,0,VALID,18.6378,VALID,58,VALID,0,
2001-08-07, 03:01:00,VALID,916.58,VALID,0,VALID,94.5883,VALID,0,VALID,18.6249,VALID,58,VALID,0,
2001-08-07, 03:02:01,VALID,916.56,VALID,0,VALID,94.4802,VALID,0,VALID,18.5988,VALID,58,VALID,0,
2001-08-07, 03:03:00,VALID,916.536,VALID,0,VALID,94.6188,VALID,0,VALID,18.5898,VALID,58,VALID,0,
2001-08-07, 03:04:01,VALID,916.528,VALID,0,VALID,94.6303,VALID,-0.0169808,VALID,18.5795,VALID,58,VALID,0,
2001-08-07, 03:05:01,VALID,916.494,VALID,0,VALID,94.6646,VALID,-0.0169808,VALID,18.5894,VALID,58,VALID,0,
2001-08-07, 03:06:01,VALID,916.459,VALID,0,VALID,94.7002,VALID,0.0169808,VALID,18.5921,VALID,58,VALID,0,
2001-08-07, 03:07:01,VALID,916.419,VALID,0,VALID,94.498,VALID,0.0339617,VALID,18.6244,VALID,62,VALID,0.0805921,
2001-08-07, 03:08:01,VALID,916.395,VALID,0,VALID,93.5621,VALID,-0.0339617,VALID,18.6247,VALID,80,VALID,0.538477,
2001-08-07, 03:09:00,VALID,916.368,VALID,0,VALID,93.7732,VALID,0,VALID,18.6055,VALID,109,VALID,0.383203,
2001-08-07, 03:10:01,VALID,916.354,VALID,0,VALID,93.6104,VALID,-0.0169808,VALID,18.6184,VALID,110,VALID,0.110176,
2001-08-07, 03:11:01,VALID,916.341,VALID,0,VALID,93.6028,VALID,-0.0169808,VALID,18.6318,VALID,131,VALID,0.25,
2001-08-07, 03:12:01,VALID,916.342,VALID,0,VALID,93.4578,VALID,0,VALID,18.6184,VALID,85,VALID,0.307422,
2001-08-07, 03:13:01,VALID,916.321,VALID,0,VALID,93.351,VALID,-0.0169808,VALID,18.5894,VALID,128,VALID,0.227344,
2001-08-07, 03:14:01,VALID,916.328,VALID,0,VALID,93.7592,VALID,0.0169808,VALID,18.5732,VALID,145,VALID,0.496995,
2001-08-07, 03:15:01,VALID,916.325,VALID,0,VALID,94.1432,VALID,0.0169808,VALID,18.5891,VALID,124,VALID,0.315173,
2001-08-07, 03:16:01,VALID,916.327,VALID,0,VALID,94.114,VALID,0,VALID,18.5859,VALID,124,VALID,0,
2001-08-07, 03:17:01,VALID,916.344,VALID,0,VALID,94.0364,VALID,0,VALID,18.5896,VALID,124,VALID,0,
2001-08-07, 03:18:01,VALID,916.355,VALID,0,VALID,93.9563,VALID,0,VALID,18.5437,VALID,124,VALID,0,
2001-08-07, 03:19:01,VALID,916.372,VALID,0,VALID,93.9627,VALID,0.0169808,VALID,18.5246,VALID,76,VALID,0.274465,
2001-08-07, 03:20:01,VALID,916.376,VALID,0,VALID,93.8876,VALID,0,VALID,18.4503,VALID,48,VALID,0.619141,
2001-08-07, 03:21:01,VALID,916.397,VALID,0,VALID,94.2234,VALID,0.0169808,VALID,18.4148,VALID,39,VALID,0.311719,
2001-08-07, 03:22:01,VALID,916.405,VALID,0,VALID,94.1941,VALID,0.0169808,VALID,18.3829,VALID,37,VALID,0,
2001-08-07, 03:23:01,VALID,916.418,VALID,0,VALID,94.4828,VALID,0,VALID,18.3375,VALID,69,VALID,0.227796,
2001-08-07, 03:24:01,VALID,916.405,VALID,0,VALID,94.568,VALID,0,VALID,18.3571,VALID,78,VALID,0.416992,
2001-08-07, 03:25:01,VALID,916.396,VALID,0,VALID,94.1394,VALID,-0.0169808,VALID,18.3474,VALID,75,VALID,0.358398,
2001-08-07, 03:26:01,VALID,916.364,VALID,0,VALID,94.0301,VALID,0.0169808,VALID,18.3089,VALID,75,VALID,0.409054,
2001-08-07, 03:27:01,VALID,916.328,VALID,0,VALID,94.3391,VALID,0,VALID,18.2828,VALID,75,VALID,0.354235,
2001-08-07, 03:28:01,VALID,916.316,VALID,0,VALID,94.3823,VALID,0,VALID,18.2766,VALID,114,VALID,0.459375,
2001-08-07, 03:29:01,VALID,916.294,VALID,0,VALID,94.3327,VALID,-0.101885,VALID,18.2549,VALID,148,VALID,0.508398,
2001-08-07, 03:30:01,VALID,916.287,VALID,0,VALID,94.306,VALID,-0.101885,VALID,18.2552,VALID,146,VALID,0.430288,
2001-08-07, 03:31:01,VALID,916.291,VALID,0,VALID,94.2234,VALID,-0.101885,VALID,18.2584,VALID,146,VALID,0.0195313,
2001-08-07, 03:32:01,VALID,916.284,VALID,0,VALID,94.1827,VALID,-0.101885,VALID,18.2614,VALID,146,VALID,0.128711,
2001-08-07, 03:33:01,VALID,916.293,VALID,0,VALID,94.1483,VALID,-0.118866,VALID,18.2485,VALID,146,VALID,0.0341797,